Wetterstats.de || Aktuelle Messwerte || Aktuelle Wetterkarten NEU! || Radar / Satellit NEU! || Wetterarchiv || Langzeitwerte NEU! || Klim. Kenntage || Met. Ereignisse || Agrarwerte || Echtzeitwerte

Monatsübersicht für April 2020 Diagramm
 
Wetter Information zur Wetteranzeige
Zeitraffer
Tageslänge (hh:mm)
Höchsttemperatur in °C
Uhrzeit
Tiefsttemperatur in °C
Uhrzeit
Luftfeuchte (max., in %)
Uhrzeit
Luftfeuchte (min., in %)
Uhrzeit
Luftdruck (max., in hPa)
Uhrzeit
Luftdruck (min., in hPa)
Uhrzeit
Luftdruck (Ø, in hPa)
Regenrate (max, mm/h)
Uhrzeit
Niederschlag in mm
Verdunstung in mm
Solar in W/m² (Ø)
Solar in W/m² (max.)
UV-Index (max.)
Sonnenscheindauer (hh:mm)
Windrichtung (Ø)
Windstärke (Ø in km/h)
Windstärke (Ø in bft)
Windböe (max., in km/h)
Uhrzeit
Windböe (max., in bft)
Uhrzeit
Taupunkt (max., in °C)
Uhrzeit
Taupunkt (min., in °C)
Uhrzeit
Windchill (min., in °C)
Uhrzeit
Gewitterindex (max.)
Uhrzeit
Waldbrandindex (max.)
Uhrzeit
Graslandfeuerindex (max.)
Uhrzeit
Staubsturm-Index (max.)
Uhrzeit
01
Kein Zeitraffer vorhanden
13:05
10.4
16:00 Uhr
-3.2
05:20 Uhr

74
04:25 Uhr
39
14:45 Uhr
1026.1
00:00 Uhr

1014.2
23:50 Uhr
1019.6
0,000
00:00 Uhr
0,000
3.023
377
677
13:25 Uhr
2.9
12:45 Uhr

09:30:00
8,5
2
37,0
11:40 Uhr

5
-1.2
20:10 Uhr
-7.3
06:45 Uhr
-7.5
06:50 Uhr
0
00:00 Uhr

00:00 Uhr

00:00 Uhr

00:00 Uhr
02
Kein Zeitraffer vorhanden
13:09
10.3
16:55 Uhr
2.1
04:15 Uhr

81
06:25 Uhr
45
17:05 Uhr
1014.2
00:00 Uhr

1005.5
23:40 Uhr
1010.1
0,000
00:00 Uhr
0,000
2.134
209
575
12:15 Uhr
2.5
12:20 Uhr

04:25:00
9,2
2
37,0
12:35 Uhr

5
1.6
11:10 Uhr
-1.7
00:00 Uhr
0.1
03:00 Uhr
0
00:00 Uhr

00:00 Uhr

00:00 Uhr

00:00 Uhr
03
Kein Zeitraffer vorhanden
13:14
11.3
12:45 Uhr
1.3
23:45 Uhr

77
06:15 Uhr
40
16:05 Uhr
1017.7
23:45 Uhr

1004.5
02:25 Uhr
1010.4
0,000
00:00 Uhr
0,000
2.769
309
896
13:10 Uhr
3.3
12:35 Uhr

05:40:00
8,5
2
41,8
13:15 Uhr

6
2.2
06:15 Uhr
-3.3
18:40 Uhr
-0.4
00:50 Uhr
0
00:00 Uhr

00:00 Uhr

00:00 Uhr

00:00 Uhr
04
Kein Zeitraffer vorhanden
13:17
12.6
16:00 Uhr
1.6
00:00 Uhr

74
22:45 Uhr
40
16:50 Uhr
1029.1
23:55 Uhr

1017.7
00:05 Uhr
1024.0
0,000
00:00 Uhr
0,000
2.286
343
874
14:25 Uhr
3.2
13:20 Uhr

06:30:00
3,9
1
27,4
14:25 Uhr

4
1.1
12:00 Uhr
-2.7
00:00 Uhr
1.6
00:00 Uhr
0
00:00 Uhr

00:00 Uhr

00:00 Uhr

00:00 Uhr
05
Kein Zeitraffer vorhanden
13:21
16.4
15:45 Uhr
0.3
05:15 Uhr

77
03:55 Uhr
34
16:15 Uhr
1031.8
09:05 Uhr

1026.3
23:25 Uhr
1029.3
0,000
00:00 Uhr
0,000
4.013
378
689
13:25 Uhr
3.2
12:35 Uhr

09:50:00
8,7
2
33,8
13:35 Uhr

5
2.2
13:30 Uhr
-3.4
05:50 Uhr
0.3
05:15 Uhr
0
00:00 Uhr

00:00 Uhr

00:00 Uhr

00:00 Uhr
06
Kein Zeitraffer vorhanden
13:26
22.8
15:55 Uhr
4.8
06:35 Uhr

60
06:35 Uhr
22
17:05 Uhr
1026.3
00:00 Uhr

1022.4
18:00 Uhr
1024.3
0,000
00:00 Uhr
0,000
4.953
390
696
12:55 Uhr
3.6
12:55 Uhr

09:50:00
10,4
2
38,6
17:05 Uhr

5
3.8
13:10 Uhr
-2.4
06:05 Uhr
1.0
07:50 Uhr
0
00:00 Uhr

00:00 Uhr

00:00 Uhr

00:00 Uhr
07
Kein Zeitraffer vorhanden
13:30
20.2
15:25 Uhr
6.9
06:20 Uhr

64
21:00 Uhr
46
00:00 Uhr
1031.7
23:50 Uhr

1023.7
00:00 Uhr
1028.0
0,000
00:00 Uhr
0,000
3.937
374
673
13:20 Uhr
3.3
12:30 Uhr

09:55:00
7,5
2
29,0
12:25 Uhr

4
11.3
14:40 Uhr
0.3
06:15 Uhr
6.7
05:45 Uhr
2
13:05 Uhr

00:00 Uhr

00:00 Uhr

00:00 Uhr
08
Kein Zeitraffer vorhanden
13:33
22.7
15:35 Uhr
2.2
06:10 Uhr

84
06:10 Uhr
35
16:05 Uhr
1031.6
00:00 Uhr

1020.8
23:20 Uhr
1026.8
0,000
00:00 Uhr
0,000
3.658
376
680
13:20 Uhr
3.2
12:55 Uhr

09:50:00
4,4
1
24,1
14:45 Uhr

4
9.3
14:15 Uhr
-0.3
06:00 Uhr
2.2
06:10 Uhr
0
00:00 Uhr

00:00 Uhr

00:00 Uhr

00:00 Uhr
09
Zeitraffer
13:37
19.3
15:30 Uhr
5.6
02:30 Uhr

83
02:45 Uhr
41
14:25 Uhr
1024.9
23:50 Uhr

1019.0
05:45 Uhr
1021.2
0,000
00:00 Uhr
0,000
2.971
306
835
13:05 Uhr
3.5
13:05 Uhr

06:25:00
6,8
1
35,4
14:50 Uhr

5
7.2
17:20 Uhr
1.3
04:15 Uhr
5.6
02:30 Uhr
0
00:00 Uhr

00:00 Uhr

00:00 Uhr

00:00 Uhr
10
Zeitraffer
13:42
16.1
15:35 Uhr
0.4
05:45 Uhr

89
03:10 Uhr
32
15:55 Uhr
1026.4
08:25 Uhr

1022.5
18:00 Uhr
1024.6
0,000
00:00 Uhr
0,000
3.327
396
747
13:30 Uhr
3.6
12:40 Uhr

10:15:00
4,2
1
25,7
15:50 Uhr

4
3.8
00:00 Uhr
-1.2
05:45 Uhr
0.4
05:45 Uhr
0
00:00 Uhr

00:00 Uhr

00:00 Uhr

00:00 Uhr
11
Zeitraffer
13:46
15.8
15:50 Uhr
2.7
06:10 Uhr

88
06:10 Uhr
33
15:50 Uhr
1027.0
10:15 Uhr

1022.5
23:55 Uhr
1025.1
0,000
00:00 Uhr
0,000
3.176
395
737
13:25 Uhr
3.7
12:45 Uhr

10:05:00
4,3
1
16,1
00:05 Uhr

3
3.7
09:50 Uhr
-0.5
14:10 Uhr
1.9
05:25 Uhr
0
00:00 Uhr

00:00 Uhr

00:00 Uhr

00:00 Uhr
12
Zeitraffer
13:49
23.1
16:45 Uhr
3.8
06:30 Uhr

78
00:55 Uhr
30
12:45 Uhr
1022.4
00:00 Uhr

1008.4
23:45 Uhr
1015.1
0,000
00:00 Uhr
0,000
4.216
403
731
13:10 Uhr
3.9
12:45 Uhr

09:55:00
5,3
1
30,6
21:25 Uhr

5
7.3
21:55 Uhr
-0.3
06:15 Uhr
3.8
06:30 Uhr
0
00:00 Uhr

00:00 Uhr

00:00 Uhr

00:00 Uhr
13
Zeitraffer
13:54
14.2
00:00 Uhr
1.6
23:05 Uhr

92
07:55 Uhr
38
17:05 Uhr
1015.1
23:55 Uhr

1007.0
04:20 Uhr
1011.3
7,200
07:30 Uhr
5,000
2.210
218
986
13:55 Uhr
3.5
12:55 Uhr

02:10:00
7,2
2
41,8
14:30 Uhr

6
7.7
07:30 Uhr
-4.6
17:05 Uhr
1.0
12:15 Uhr
0
00:00 Uhr

00:00 Uhr

00:00 Uhr

00:00 Uhr
14
Zeitraffer
13:58
10.9
16:05 Uhr
0.3
06:10 Uhr

85
06:15 Uhr
34
18:30 Uhr
1021.2
21:30 Uhr

1015.4
00:00 Uhr
1019.0
0,000
00:00 Uhr
0,000
2.515
322
1025
13:35 Uhr
3.8
14:05 Uhr

06:50:00
6,7
1
37,0
16:55 Uhr

5
-0.6
09:20 Uhr
-5.8
18:40 Uhr
-0.6
00:15 Uhr
0
00:00 Uhr

00:00 Uhr

00:00 Uhr

00:00 Uhr
15
Zeitraffer
14:02
14.6
17:15 Uhr
3.5
01:20 Uhr

75
05:55 Uhr
45
18:00 Uhr
1021.6
01:05 Uhr

1017.9
23:40 Uhr
1019.9
0,000
00:00 Uhr
0,000
3.175
335
872
12:35 Uhr
3.7
11:45 Uhr

07:35:00
9,0
2
43,5
12:40 Uhr

6
3.8
15:40 Uhr
-3.0
00:00 Uhr
-1.2
06:15 Uhr
0
00:00 Uhr

00:00 Uhr

00:00 Uhr

00:00 Uhr


 
Wetter Information zur Wetteranzeige
Zeitraffer
Tageslänge (hh:mm)
Höchsttemperatur in °C
Uhrzeit
Tiefsttemperatur in °C
Uhrzeit
Luftfeuchte (max., in %)
Uhrzeit
Luftfeuchte (min., in %)
Uhrzeit
Luftdruck (max., in hPa)
Uhrzeit
Luftdruck (min., in hPa)
Uhrzeit
Luftdruck (Ø, in hPa)
Regenrate (max, mm/h)
Uhrzeit
Niederschlag in mm
Verdunstung in mm
Solar in W/m² (Ø)
Solar in W/m² (max.)
UV-Index (max.)
Sonnenscheindauer (hh:mm)
Windrichtung (Ø)
Windstärke (Ø in km/h)
Windstärke (Ø in bft)
Windböe (max., in km/h)
Uhrzeit
Windböe (max., in bft)
Uhrzeit
Taupunkt (max., in °C)
Uhrzeit
Taupunkt (min., in °C)
Uhrzeit
Windchill (min., in °C)
Uhrzeit
Gewitterindex (max.)
Uhrzeit
Waldbrandindex (max.)
Uhrzeit
Graslandfeuerindex (max.)
Uhrzeit
Staubsturm-Index (max.)
Uhrzeit
16
Zeitraffer
14:05
19.7
15:25 Uhr
3.7
05:10 Uhr

74
05:10 Uhr
29
14:15 Uhr
1017.9
00:00 Uhr

1012.9
18:55 Uhr
1015.2
0,000
00:00 Uhr
0,000
3.886
384
728
12:30 Uhr
3.8
12:20 Uhr

10:05:00
6,2
1
27,4
14:20 Uhr

4
6.4
21:10 Uhr
-0.8
12:50 Uhr
3.4
05:10 Uhr
0
00:00 Uhr

00:00 Uhr

00:00 Uhr

00:00 Uhr
17
Zeitraffer
14:09
16.2
16:30 Uhr
5.0
06:05 Uhr

89
06:10 Uhr
38
18:10 Uhr
1017.5
11:10 Uhr

1014.5
00:00 Uhr
1016.4
0,000
00:00 Uhr
0,000
3.454
399
765
11:00 Uhr
3.8
12:45 Uhr

09:45:00
4,2
1
20,9
14:45 Uhr

4
6.4
10:50 Uhr
-0.2
21:10 Uhr
5.0
06:05 Uhr
0
00:00 Uhr

00:00 Uhr

00:00 Uhr

00:00 Uhr
18
Zeitraffer
14:14
17.3
16:00 Uhr
3.2
06:35 Uhr

67
07:05 Uhr
30
13:15 Uhr
1018.7
06:45 Uhr

1015.3
18:05 Uhr
1017.2
0,000
00:00 Uhr
0,000
4.089
411
754
13:15 Uhr
4.1
12:35 Uhr

10:35:00
6,3
1
25,7
15:35 Uhr

4
1.6
14:50 Uhr
-3.7
05:55 Uhr
3.2
06:35 Uhr
0
00:00 Uhr

00:00 Uhr

00:00 Uhr

00:00 Uhr
19
Zeitraffer
14:18
13.8
17:10 Uhr
3.8
06:15 Uhr

66
22:20 Uhr
32
17:20 Uhr
1024.4
23:55 Uhr

1017.1
00:00 Uhr
1020.9
0,000
00:00 Uhr
0,000
4.293
410
747
13:20 Uhr
3.6
12:35 Uhr

10:35:00
9,2
2
37,0
13:20 Uhr

5
1.0
13:25 Uhr
-4.0
05:50 Uhr
-1.4
07:25 Uhr
0
00:00 Uhr

00:00 Uhr

00:00 Uhr

00:00 Uhr
20
Zeitraffer
14:21
15.3
16:00 Uhr
0.1
06:05 Uhr

82
06:15 Uhr
30
15:25 Uhr
1026.7
10:45 Uhr

1023.6
18:10 Uhr
1025.3
0,000
00:00 Uhr
0,000
4.445
417
761
13:10 Uhr
3.8
13:10 Uhr

10:35:00
9,1
2
32,2
09:30 Uhr

5
0.7
12:40 Uhr
-2.8
05:55 Uhr
0.1
06:05 Uhr
0
00:00 Uhr

00:00 Uhr

00:00 Uhr

00:00 Uhr
21
Zeitraffer
14:25
17.7
15:15 Uhr
3.2
05:35 Uhr

76
05:55 Uhr
35
15:15 Uhr
1026.1
07:40 Uhr

1024.3
17:10 Uhr
1025.3
0,000
00:00 Uhr
0,000
4.775
412
744
13:00 Uhr
3.8
12:35 Uhr

10:50:00
10,5
2
38,6
12:25 Uhr

5
3.2
12:40 Uhr
-0.8
05:35 Uhr
1.6
07:20 Uhr
0
00:00 Uhr

00:00 Uhr

00:00 Uhr

00:00 Uhr
22
Zeitraffer
14:29
19.4
16:15 Uhr
3.2
05:50 Uhr

82
05:55 Uhr
36
15:40 Uhr
1026.6
08:30 Uhr

1022.9
18:10 Uhr
1024.9
0,000
00:00 Uhr
0,000
4.445
413
754
13:20 Uhr
4.0
12:40 Uhr

10:50:00
7,4
2
32,2
16:25 Uhr

5
5.9
11:45 Uhr
0.1
05:50 Uhr
3.2
05:50 Uhr
0
00:00 Uhr

00:00 Uhr

00:00 Uhr

00:00 Uhr
23
Zeitraffer
14:33
21.4
16:10 Uhr
2.5
05:45 Uhr

86
05:10 Uhr
33
17:05 Uhr
1024.6
07:45 Uhr

1015.2
23:55 Uhr
1021.3
0,000
00:00 Uhr
0,000
4.140
418
756
13:15 Uhr
4.2
12:40 Uhr

10:45:00
3,6
1
24,1
11:25 Uhr

4
6.9
11:50 Uhr
0.3
05:40 Uhr
2.5
05:45 Uhr
0
00:00 Uhr

00:00 Uhr

00:00 Uhr

00:00 Uhr
24
Zeitraffer
14:37
22.7
15:15 Uhr
6.6
04:25 Uhr

77
01:00 Uhr
32
14:35 Uhr
1015.2
00:00 Uhr

1003.0
19:05 Uhr
1007.5
0,000
00:00 Uhr
0,000
4.166
370
766
10:30 Uhr
3.9
12:35 Uhr

09:00:00
5,6
1
30,6
16:05 Uhr

5
7.3
11:55 Uhr
1.6
20:55 Uhr
6.6
04:25 Uhr
0
00:00 Uhr

00:00 Uhr

00:00 Uhr

00:00 Uhr
25
Zeitraffer
14:41
15.0
14:45 Uhr
7.2
04:25 Uhr

80
09:00 Uhr
43
14:45 Uhr
1009.8
14:55 Uhr

1003.6
00:00 Uhr
1007.3
0,000
00:00 Uhr
0,000
2.870
268
1049
12:45 Uhr
4.0
12:25 Uhr

03:20:00
6,9
1
32,2
12:10 Uhr

5
5.3
09:20 Uhr
1.1
18:05 Uhr
4.2
09:55 Uhr
0
00:00 Uhr

00:00 Uhr

00:00 Uhr

00:00 Uhr
26
Zeitraffer
14:45
18.0
16:30 Uhr
2.3
06:00 Uhr

88
06:00 Uhr
34
17:20 Uhr
1011.1
10:45 Uhr

1008.7
19:55 Uhr
1009.8
0,000
00:00 Uhr
0,000
3.531
359
984
13:50 Uhr
4.4
12:25 Uhr

08:30:00
3,9
1
22,5
13:05 Uhr

4
3.9
11:20 Uhr
0.5
05:55 Uhr
2.3
06:00 Uhr
0
00:00 Uhr

00:00 Uhr

00:00 Uhr

00:00 Uhr
27
Zeitraffer
14:49
22.5
16:00 Uhr
3.7
05:50 Uhr

78
05:55 Uhr
32
14:05 Uhr
1009.3
02:55 Uhr

1004.5
23:10 Uhr
1007.3
0,000
00:00 Uhr
0,000
4.420
415
773
12:45 Uhr
4.0
12:45 Uhr

10:15:00
4,8
1
33,8
11:55 Uhr

5
6.3
15:55 Uhr
0.1
05:45 Uhr
3.7
05:50 Uhr
0
00:00 Uhr

00:00 Uhr

00:00 Uhr

00:00 Uhr
28
Zeitraffer
14:52
24.4
14:25 Uhr
8.9
01:35 Uhr

80
21:50 Uhr
32
12:45 Uhr
1004.5
00:05 Uhr

1000.5
18:45 Uhr
1002.7
2,400
21:45 Uhr
0,200
4.141
371
786
13:20 Uhr
4.5
13:05 Uhr

08:20:00
5,5
1
32,2
13:20 Uhr

5
11.2
21:50 Uhr
2.7
04:25 Uhr
7.9
06:30 Uhr
3
21:05 Uhr

00:00 Uhr

00:00 Uhr

00:00 Uhr
29
Zeitraffer
14:56
15.4
16:15 Uhr
8.6
07:10 Uhr

96
08:15 Uhr
74
16:20 Uhr
1006.1
21:45 Uhr

1000.7
05:15 Uhr
1003.4
4,800
19:35 Uhr
2,800
1.549
195
770
14:55 Uhr
3.3
14:55 Uhr

02:25:00
5,0
1
20,9
07:00 Uhr

4
11.2
19:35 Uhr
7.4
06:35 Uhr
6.5
07:00 Uhr
2
00:00 Uhr

00:00 Uhr

00:00 Uhr

00:00 Uhr
30
Zeitraffer
15:00
19.7
13:05 Uhr
8.1
04:30 Uhr

100
07:10 Uhr
54
13:10 Uhr
1006.1
00:40 Uhr

1001.6
23:30 Uhr
1003.8
2,400
05:50 Uhr
0,400
2.616
261
1002
12:40 Uhr
5.3
13:05 Uhr

05:35:00
6,3
1
30,6
12:20 Uhr

5
12.8
10:15 Uhr
7.6
04:30 Uhr
8.1
04:30 Uhr
4
15:05 Uhr

00:00 Uhr

00:00 Uhr

00:00 Uhr
Stationsstandorte || Wetterblog || Wissenswertes || Downloads || Seitenhistorie || Partner || Impressum / Datenschutz